Weather past 2 weeks in El Aaiún, Western Sahara

63 °F


Feels Like: 63 °F
Forecast: N/A
Wind: 17 mph from Northeast

Location: Laayoune/Hassan Isl

Current Time: Nov 24, 2015 at 11:00:37 PM

Latest Report: Nov 24, 2015 at 10:00 PM

Visibility: 10 mi

Pressure: 30.24 "Hg

Humidity: 68%

Dew point: 52 °F

Location of El AaiúnLocation

Historic Weather in El Aaiún — Graph


El Aaiún temperature yesterday

Maximum temperature yesterday: 73 °F (at 12:00 PM)
Minimum temperature yesterday: -69 °F (at 12:00 AM)
Average temperature yesterday: 61 °F

Past Weeks' High & Low Weather Summary

High88 °F (Nov 10, 3:00 PM)100% (Nov 19, 7:00 AM)30.36 "Hg (Nov 19, 7:00 AM)
Low-69 °F (Nov 23, 12:00 AM)11% (Nov 14, 4:00 PM)29.98 "Hg (Nov 22, 4:00 PM)
Average72 °F53%30.16 "Hg
* Reported Nov 9 9:00 PM — Nov 24 9:00 PM, El Aaiún, Weather by CustomWeather, © 2015

Note: Actual official high and low records may vary slightly from our data, if they occured in-between our weather recording intervals... More about our weather records


El Aaiún weather history for previous 24 hours

Time TempWeatherWind HumidityBarometerVisibility
9:00 PM
Tue, Nov 24
63 °FClear.17 mph68%30.24 "Hg10 mi
8:00 PM64 °FClear.20 mph60%30.21 "Hg10 mi
7:00 PM66 °FClear.16 mph49%30.18 "Hg10 mi
6:00 PM70 °FSunny.15 mph43%30.18 "Hg10 mi
5:00 PM75 °FSunny.20 mph29%30.15 "Hg10 mi
4:00 PM75 °FPassing clouds.18 mph36%30.15 "HgN/A
3:00 PM75 °FPassing clouds.14 mph39%30.15 "HgN/A
2:00 PM75 °FPassing clouds.14 mph36%30.15 "HgN/A
1:00 PM73 °FSunny.14 mph38%30.18 "Hg10 mi
12:00 PM72 °FSunny.14 mph38%30.18 "Hg10 mi
11:00 AM70 °FPassing clouds.17 mph46%30.21 "HgN/A
10:00 AM66 °FPassing clouds.15 mph52%30.21 "HgN/A
9:00 AM63 °FPassing clouds.14 mph59%30.18 "HgN/A
8:00 AM59 °FPassing clouds.10 mph68%30.15 "Hg5 mi
7:00 AM59 °FPassing clouds.10 mph63%30.12 "Hg4 mi
6:00 AM59 °FPassing clouds.12 mph68%30.09 "Hg4 mi
4:00 AM57 °FPassing clouds.6 mph82%30.09 "Hg5 mi
3:00 AM59 °FPassing clouds.7 mph77%30.09 "Hg5 mi
2:00 AM59 °FPassing clouds.6 mph77%30.09 "Hg5 mi
1:00 AM59 °FPassing clouds.6 mph77%30.09 "Hg5 mi
12:00 AM59 °FPassing clouds.6 mph77%30.09 "Hg5 mi
11:00 PM
Mon, Nov 23
61 °FPassing clouds.6 mph72%30.09 "Hg5 mi
Weather by CustomWeather, © 2015

See weather overviewHow to use our weather pages